N1OTX Weather Reports


Display with metric or nautical units.
time (UTC)temp
F
wind
direction
speed
MPH
gust
MPH
rain 1hr
in
rain 24hr
in
rain mn
in
humidity
%
barometer
mb
20260507015028 59 249 1.0 3.0 0.00 0.09 0.09 96 1005.9
20260507014528 59 206 1.0 6.0 0.00 0.09 0.09 95 1005.9
20260507014028 59 210 1.0 6.0 0.00 0.09 0.09 96 1005.9
20260507013548 59 198 2.0 6.0 0.00 0.09 0.09 96 1005.9
20260507013028 59 261 1.0 4.0 0.00 0.09 0.09 96 1005.8
20260507012527 58 211 2.0 10.0 0.00 0.09 0.09 96 1006.0
20260507012028 58 210 2.0 8.0 0.00 0.09 0.09 96 1006.0
20260507011527 58 208 1.0 7.0 0.00 0.09 0.09 96 1006.0
20260507011028 58 264 2.0 7.0 0.00 0.09 0.09 96 1006.1
20260507010527 58 232 2.0 9.0 0.00 0.09 0.09 95 1006.1
20260507010027 58 193 2.0 9.0 0.00 0.09 0.09 95 1006.1
20260507005527 58 237 1.0 4.0 0.00 0.09 0.09 95 1006.2
20260507005047 58 177 1.0 7.0 0.00 0.09 0.09 95 1006.1
20260507004527 58 233 1.0 6.0 0.00 0.09 0.09 95 1006.2
20260507004027 58 214 2.0 6.0 0.00 0.09 0.09 95 1006.1
20260507003526 58 243 1.0 7.0 0.00 0.09 0.09 95 1006.1
20260507003029 58 244 1.0 7.0 0.00 0.09 0.09 95 1006.1
20260507002528 58 177 2.0 7.0 0.01 0.09 0.09 96 1006.2
20260507002028 58 190 2.0 6.0 0.01 0.09 0.09 95 1006.2
20260507001528 58 211 2.0 9.0 0.02 0.09 0.09 95 1006.1
20260507001028 58 192 2.0 9.0 0.02 0.09 0.09 95 1005.9
20260507000528 59 198 2.0 7.0 0.03 0.09 0.09 95 1005.8
20260507000028 59 210 2.0 7.0 0.02 0.08 0.08 95 1005.7
20260506235527 59 211 3.0 10.0 0.02 0.08 0.08 95 1005.8
20260506235027 59 199 2.0 7.0 0.02 0.08 0.08 95 1005.8
20260506234547 59 211 2.0 9.0 0.02 0.08 0.08 95 1005.8
20260506234027 59 210 1.0 6.0 0.02 0.08 0.08 95 1005.9
20260506233527 59 187 1.0 7.0 0.02 0.08 0.08 95 1005.8
20260506233027 59 224 2.0 8.0 0.02 0.08 0.08 95 1005.7
20260506232527 59 167 1.0 8.0 0.02 0.08 0.08 94 1005.8
20260506232026 60 238 1.0 7.0 0.01 0.07 0.07 94 1005.7
20260506231528 60 178 1.0 6.0 0.01 0.07 0.07 94 1005.7
20260506231028 60 195 1.0 6.0 0.00 0.06 0.06 93 1005.8
20260506230528 60 182 1.0 7.0 0.00 0.06 0.06 94 1005.8
20260506230028 60 214 2.0 7.0 0.00 0.06 0.06 94 1005.7
20260506225528 60 205 1.0 9.0 0.00 0.06 0.06 93 1005.8
20260506225027 60 201 3.0 14.0 0.01 0.06 0.06 94 1005.9
20260506224527 60 206 2.0 7.0 0.01 0.06 0.06 94 1005.9
20260506224027 60 219 2.0 9.0 0.02 0.06 0.06 94 1005.9
20260506223527 60 165 2.0 11.0 0.02 0.06 0.06 94 1006.0
20260506223027 60 221 1.0 11.0 0.02 0.06 0.06 94 1006.0
20260506222527 60 180 3.0 11.0 0.02 0.06 0.06 94 1006.1
20260506222029 60 187 3.0 10.0 0.02 0.06 0.06 94 1006.2
20260506221528 60 182 2.0 10.0 0.02 0.06 0.06 94 1006.3
20260506221028 60 207 2.0 9.0 0.02 0.06 0.06 93 1006.2
20260506220529 60 210 2.0 9.0 0.02 0.06 0.06 93 1006.3
20260506220028 60 215 2.0 10.0 0.01 0.05 0.05 92 1006.2
20260506215528 60 175 3.0 11.0 0.01 0.05 0.05 91 1006.3
20260506215048 61 221 1.0 6.0 0.01 0.05 0.05 90 1006.5
20260506214528 61 193 2.0 7.0 0.00 0.05 0.05 89 1006.6
20260506214028 61 200 3.0 15.0 0.00 0.04 0.04 87 1006.7
20260506213547 61 197 4.0 15.0 0.00 0.04 0.04 87 1006.6
20260506213027 61 208 2.0 11.0 0.00 0.04 0.04 88 1006.7
20260506212527 61 204 2.0 6.0 0.01 0.04 0.04 88 1006.6
20260506212027 61 166 1.0 6.0 0.01 0.04 0.04 88 1006.6
20260506211527 61 198 2.0 7.0 0.01 0.04 0.04 88 1006.7
20260506211027 61 236 1.0 4.0 0.01 0.04 0.04 88 1006.6
20260506210529 61 248 1.0 9.0 0.01 0.04 0.04 88 1006.7
20260506210030 61 158 1.0 8.0 0.01 0.04 0.04 88 1006.7
20260506205528 61 224 1.0 6.0 0.01 0.04 0.04 88 1006.8
20260506205028 61 223 3.0 10.0 0.01 0.04 0.04 87 1006.8
20260506204548 61 200 1.0 9.0 0.02 0.04 0.04 87 1006.9
20260506204028 62 164 2.0 7.0 0.02 0.04 0.04 86 1007.0
20260506203528 62 188 2.0 10.0 0.02 0.04 0.04 86 1007.0
20260506203028 62 225 1.0 7.0 0.02 0.04 0.04 85 1007.0
20260506202528 62 200 2.0 7.0 0.02 0.04 0.04 85 1007.0
20260506202028 62 202 2.0 10.0 0.03 0.04 0.04 86 1006.9
20260506201528 62 183 1.0 7.0 0.03 0.04 0.04 86 1006.9
20260506201028 62 201 1.0 4.0 0.04 0.04 0.04 85 1006.7
20260506200528 63 149 2.0 7.0 0.04 0.04 0.04 85 1006.8
20260506200028 63 129 1.0 6.0 0.04 0.04 0.04 85 1006.7
20260506195528 63 201 2.0 7.0 0.03 0.03 0.03 84 1006.8
20260506195027 63 185 2.0 11.0 0.03 0.03 0.03 83 1006.9
20260506194527 64 192 2.0 7.0 0.03 0.03 0.03 83 1006.9
20260506194047 64 185 1.0 4.0 0.02 0.02 0.02 82 1007.1
20260506193529 65 192 1.0 4.0 0.02 0.02 0.02 80 1007.0
20260506193029 65 235 1.0 7.0 0.02 0.02 0.02 77 1007.0
20260506192527 66 221 2.0 14.0 0.01 0.01 0.01 74 1007.0
20260506192028 66 215 2.0 14.0 0.01 0.01 0.01 73 1007.0
20260506191528 67 265 1.0 6.0 0.00 0.00 0.00 71 1007.0
20260506191027 68 227 3.0 8.0 0.00 0.00 0.00 67 1006.9
20260506190527 68 278 2.0 9.0 0.00 0.00 0.00 65 1006.9
20260506190027 68 257 2.0 7.0 0.00 0.00 0.00 64 1007.0
20260506185529 69 242 2.0 14.0 0.00 0.00 0.00 63 1007.0
20260506185029 69 226 4.0 14.0 0.00 0.00 0.00 62 1007.1
20260506184528 69 252 4.0 14.0 0.00 0.00 0.00 61 1007.0
20260506184029 70 149 2.0 15.0 0.00 0.00 0.00 60 1007.0
20260506183528 70 232 3.0 23.0 0.00 0.00 0.00 58 1007.0
20260506183028 71 234 2.0 7.0 0.00 0.00 0.00 56 1007.0
20260506182528 71 198 3.0 13.0 0.00 0.00 0.00 55 1007.1
20260506182028 71 215 2.0 13.0 0.00 0.00 0.00 54 1007.1
20260506181528 72 75 1.0 3.0 0.00 0.00 0.00 54 1007.1
20260506181048 72 232 1.0 4.0 0.00 0.00 0.00 53 1007.0
20260506180528 72 286 2.0 11.0 0.00 0.00 0.00 53 1007.2
20260506180027 72 211 3.0 13.0 0.00 0.00 0.00 52 1007.3
20260506175548 72 223 5.0 15.0 0.00 0.00 0.00 52 1007.3
20260506175027 72 247 4.0 15.0 0.00 0.00 0.00 52 1007.4
20260506174527 73 192 3.0 13.0 0.00 0.00 0.00 54 1007.3
20260506174049 72 193 4.0 13.0 0.00 0.00 0.00 55 1007.3
20260506173529 72 169 4.0 13.0 0.00 0.00 0.00 56 1007.5
20260506173029 72 172 4.0 18.0 0.00 0.00 0.00 56 1007.6
20260506172548 72 208 3.0 11.0 0.00 0.00 0.00 56 1007.5
20260506172028 72 195 5.0 13.0 0.00 0.00 0.00 56 1007.6
20260506171548 72 188 4.0 14.0 0.00 0.00 0.00 56 1007.5
20260506171028 72 209 4.0 14.0 0.00 0.00 0.00 57 1007.5
20260506170548 72 193 3.0 10.0 0.00 0.00 0.00 59 1007.6
20260506170028 71 160 5.0 14.0 0.00 0.00 0.00 58 1007.6
20260506165548 71 200 4.0 14.0 0.00 0.00 0.00 58 1007.8
20260506165028 71 234 4.0 13.0 0.00 0.00 0.00 57 1007.8
20260506164527 71 189 4.0 10.0 0.00 0.00 0.00 58 1007.9
20260506164027 71 280 3.0 8.0 0.00 0.00 0.00 58 1007.9
20260506163527 71 220 2.0 7.0 0.00 0.00 0.00 58 1007.9
20260506163027 71 155 3.0 11.0 0.00 0.00 0.00 58 1008.0
20260506162547 71 165 3.0 10.0 0.00 0.00 0.00 57 1008.2
20260506162027 72 231 3.0 10.0 0.00 0.00 0.00 57 1008.3
20260506161527 72 184 3.0 10.0 0.00 0.00 0.00 56 1008.4
20260506161028 72 169 2.0 8.0 0.00 0.00 0.00 57 1008.3
20260506160528 72 207 2.0 11.0 0.00 0.00 0.00 57 1008.5
20260506160028 72 288 3.0 7.0 0.00 0.00 0.00 56 1008.5
20260506155528 72 157 2.0 15.0 0.00 0.00 0.00 56 1008.7
20260506155028 72 230 4.0 15.0 0.00 0.00 0.00 55 1008.8
20260506154528 72 249 1.0 6.0 0.00 0.00 0.00 57 1008.7
20260506154048 72 230 2.0 11.0 0.00 0.00 0.00 56 1008.8
20260506153527 72 188 4.0 13.0 0.00 0.00 0.00 56 1008.9
20260506153027 72 243 4.0 17.0 0.00 0.00 0.00 55 1009.1
20260506152527 72 224 3.0 9.0 0.00 0.00 0.00 55 1009.0
20260506152029 73 211 4.0 10.0 0.00 0.00 0.00 55 1009.0
20260506151529 72 199 3.0 10.0 0.00 0.00 0.00 57 1009.1
20260506151029 72 212 4.0 15.0 0.00 0.00 0.00 57 1009.2
20260506150549 72 206 3.0 10.0 0.00 0.00 0.00 58 1009.2
20260506150049 71 238 3.0 8.0 0.00 0.00 0.00 58 1009.3
20260506145528 71 248 3.0 16.0 0.00 0.00 0.00 59 1009.3
20260506145028 71 206 2.0 10.0 0.00 0.00 0.00 60 1009.1
20260506144548 70 206 3.0 10.0 0.00 0.00 0.00 60 1009.2
20260506144028 70 230 3.0 10.0 0.00 0.00 0.00 61 1009.1
20260506143528 70 248 3.0 10.0 0.00 0.00 0.00 61 1009.2
20260506143028 70 223 3.0 10.0 0.00 0.00 0.00 62 1009.2
20260506142528 70 208 2.0 13.0 0.00 0.00 0.00 62 1009.1
20260506142028 69 196 3.0 13.0 0.00 0.00 0.00 64 1009.1
20260506141527 69 201 3.0 14.0 0.00 0.00 0.00 63 1009.2
20260506141027 69 186 3.0 11.0 0.00 0.00 0.00 65 1009.2
20260506140529 69 236 3.0 14.0 0.00 0.00 0.00 65 1009.3
20260506140029 69 208 3.0 11.0 0.00 0.00 0.00 65 1009.3
20260506135529 68 186 3.0 11.0 0.00 0.00 0.00 67 1009.3
20260506135028 67 154 2.0 8.0 0.00 0.00 0.00 68 1009.3
20260506134528 67 202 3.0 14.0 0.00 0.00 0.00 69 1009.4
20260506134028 66 217 3.0 11.0 0.00 0.00 0.00 69 1009.6
20260506133528 66 164 3.0 9.0 0.00 0.00 0.00 70 1009.8
20260506133028 66 178 1.0 6.0 0.00 0.00 0.00 72 1009.9
20260506132528 65 211 2.0 7.0 0.00 0.00 0.00 72 1009.9
20260506132027 65 190 1.0 9.0 0.00 0.00 0.00 71 1009.8
20260506131548 65 205 2.0 9.0 0.00 0.00 0.00 71 1009.8
20260506131027 65 266 1.0 9.0 0.00 0.00 0.00 73 1009.7
20260506130527 65 221 1.0 4.0 0.00 0.00 0.00 73 1009.8
20260506130027 65 198 2.0 7.0 0.00 0.00 0.00 72 1009.8
20260506125527 65 186 2.0 7.0 0.00 0.00 0.00 73 1009.8
20260506125029 65 199 3.0 10.0 0.00 0.00 0.00 73 1009.7
20260506124529 64 174 4.0 10.0 0.00 0.00 0.00 73 1009.8
20260506124029 64 169 3.0 10.0 0.00 0.00 0.00 73 1010.0
20260506123528 64 175 3.0 10.0 0.00 0.00 0.00 74 1010.1
20260506123028 63 211 1.0 3.0 0.00 0.00 0.00 77 1010.0
20260506122528 63 196 1.0 3.0 0.00 0.00 0.00 76 1010.0
20260506122028 63 214 2.0 7.0 0.00 0.00 0.00 75 1009.8
20260506121528 63 172 3.0 13.0 0.00 0.00 0.00 75 1009.9
20260506121028 63 209 3.0 10.0 0.00 0.00 0.00 75 1009.8
20260506120527 63 221 3.0 10.0 0.00 0.00 0.00 75 1009.9
20260506120028 62 174 3.0 10.0 0.00 0.00 0.00 77 1010.0
20260506115527 62 204 3.0 10.0 0.00 0.00 0.00 77 1010.2
20260506115027 62 212 2.0 10.0 0.00 0.00 0.00 78 1010.2
20260506114527 62 191 2.0 4.0 0.00 0.00 0.00 78 1010.1
20260506114027 62 218 2.0 10.0 0.00 0.00 0.00 78 1010.4
20260506113529 62 227 2.0 7.0 0.00 0.00 0.00 78 1010.4
20260506113029 62 258 2.0 13.0 0.00 0.00 0.00 78 1010.4
20260506112528 62 220 2.0 8.0 0.00 0.00 0.00 78 1010.3
20260506112028 62 231 2.0 8.0 0.00 0.00 0.00 77 1010.1
20260506111528 62 206 2.0 10.0 0.00 0.00 0.00 78 1010.2
20260506111028 62 231 2.0 10.0 0.00 0.00 0.00 77 1010.2
20260506110528 62 208 3.0 10.0 0.00 0.00 0.00 78 1010.3
20260506110028 61 204 2.0 8.0 0.00 0.00 0.00 79 1010.1
20260506105528 60 192 3.0 9.0 0.00 0.00 0.00 80 1010.1
20260506105027 60 202 1.0 7.0 0.00 0.00 0.00 81 1010.2
20260506104527 60 193 2.0 10.0 0.00 0.00 0.00 80 1010.2
20260506104027 60 215 2.0 6.0 0.00 0.00 0.00 81 1010.3
20260506103527 60 162 2.0 4.0 0.00 0.00 0.00 80 1010.3
20260506103027 60 212 2.0 4.0 0.00 0.00 0.00 80 1010.3
20260506102528 60 215 2.0 8.0 0.00 0.00 0.00 80 1010.2
20260506102027 60 200 2.0 8.0 0.00 0.00 0.00 80 1010.3
20260506101527 60 182 2.0 9.0 0.00 0.00 0.00 80 1010.2
20260506101027 60 158 1.0 6.0 0.00 0.00 0.00 80 1010.1
20260506100547 60 207 1.0 6.0 0.00 0.00 0.00 80 1010.2
20260506100029 60 200 1.0 7.0 0.00 0.00 0.00 80 1010.1
20260506095528 60 185 1.0 8.0 0.00 0.00 0.00 80 1009.9
20260506095028 60 190 2.0 8.0 0.00 0.00 0.00 79 1009.9
20260506094528 60 204 2.0 7.0 0.00 0.00 0.00 79 1009.9
20260506094027 60 196 2.0 7.0 0.00 0.00 0.00 79 1010.0
20260506093527 60 201 1.0 4.0 0.00 0.00 0.00 79 1010.0
20260506093027 60 201 1.0 8.0 0.00 0.00 0.00 78 1010.1
20260506092527 60 211 1.0 7.0 0.00 0.00 0.00 78 1010.0
20260506092027 61 167 1.0 6.0 0.00 0.00 0.00 78 1010.1
20260506091528 61 199 2.0 8.0 0.00 0.00 0.00 77 1010.0
20260506091028 61 217 1.0 4.0 0.00 0.00 0.00 77 1010.1
20260506090528 61 205 2.0 6.0 0.00 0.00 0.00 76 1010.0
20260506090028 61 214 2.0 8.0 0.00 0.00 0.00 76 1010.1
20260506085528 61 199 2.0 7.0 0.00 0.00 0.00 76 1010.1
20260506085028 61 204 1.0 6.0 0.00 0.00 0.00 76 1010.1
20260506084528 61 209 1.0 6.0 0.00 0.00 0.00 75 1010.1
20260506084028 61 203 3.0 10.0 0.00 0.00 0.00 75 1010.1
20260506083527 61 218 2.0 10.0 0.00 0.00 0.00 75 1010.1
20260506083028 61 235 2.0 8.0 0.00 0.00 0.00 75 1010.0
20260506082527 61 193 3.0 15.0 0.00 0.00 0.00 75 1010.0
20260506082027 61 286 2.0 8.0 0.00 0.00 0.00 74 1009.9
20260506081527 62 249 1.0 6.0 0.00 0.00 0.00 74 1009.9
20260506081027 62 228 2.0 11.0 0.00 0.00 0.00 74 1010.0
20260506080609 62 218 2.0 9.0 0.00 0.00 0.00 74 1010.0
20260506073028 62 204 3.0 14.0 0.00 0.00 0.00 72 1009.8
20260506072528 62 169 3.0 16.0 0.00 0.00 0.00 72 1009.8
20260506072027 62 249 2.0 13.0 0.00 0.00 0.00 72 1009.8
20260506071528 62 180 3.0 13.0 0.00 0.00 0.00 71 1009.8
20260506071027 63 208 1.0 8.0 0.00 0.00 0.00 71 1009.7
20260506070528 63 213 2.0 8.0 0.00 0.00 0.00 70 1009.6
20260506062028 64 192 2.0 7.0 0.00 0.00 0.00 67 1009.5
20260506061528 64 204 2.0 9.0 0.00 0.00 0.00 66 1009.5
20260506061027 64 205 2.0 11.0 0.00 0.00 0.00 66 1009.4
20260506060527 64 201 2.0 7.0 0.00 0.00 0.00 65 1009.4
20260506051108 64 215 2.0 8.0 0.00 0.00 0.00 62 1009.8
20260506050548 64 172 2.0 14.0 0.00 0.00 0.00 62 1009.8
20260506045028 65 192 2.0 8.0 0.00 0.00 0.00 61 1010.0
20260506044528 65 193 3.0 14.0 0.00 0.00 0.00 61 1010.0
20260506044027 64 198 3.0 11.0 0.00 0.00 0.00 61 1009.9
20260506043527 64 199 2.0 6.0 0.00 0.00 0.00 61 1009.9
20260506043027 64 244 2.0 7.0 0.00 0.00 0.00 61 1009.9
20260506042527 64 247 1.0 7.0 0.00 0.00 0.00 61 1010.0
20260506042032 64 185 2.0 6.0 0.00 0.00 0.00 61 1010.0
20260506041529 65 299 2.0 8.0 0.00 0.00 0.00 60 1009.9
20260506041029 64 269 3.0 9.0 0.00 0.00 0.00 60 1010.0
20260506040549 64 229 3.0 11.0 0.00 0.00 0.00 60 1010.0
20260506040028 64 225 3.0 9.0 0.00 0.00 0.00 60 1009.9
20260506035528 64 220 3.0 13.0 0.00 0.00 0.00 61 1010.0
20260506035028 64 198 2.0 10.0 0.00 0.00 0.00 61 1009.9
20260506034528 64 261 2.0 11.0 0.00 0.00 0.00 61 1009.9
20260506034028 64 201 2.0 11.0 0.00 0.00 0.00 61 1009.9
20260506033528 64 214 2.0 7.0 0.00 0.00 0.00 60 1009.8
20260506033027 64 213 3.0 15.0 0.00 0.00 0.00 60 1009.9
20260506032528 64 245 2.0 10.0 0.00 0.00 0.00 60 1009.8
20260506032027 64 240 1.0 8.0 0.00 0.00 0.00 60 1009.8
20260506031527 64 228 2.0 9.0 0.00 0.00 0.00 60 1009.8
20260506031027 64 198 2.0 10.0 0.00 0.00 0.00 60 1009.7
20260506030527 64 210 3.0 8.0 0.00 0.00 0.00 59 1009.7
20260506030029 64 234 2.0 8.0 0.00 0.00 0.00 59 1009.8
20260506025528 64 236 1.0 7.0 0.00 0.00 0.00 59 1009.8
20260506025028 64 224 3.0 16.0 0.00 0.00 0.00 58 1009.8
20260506024528 64 224 2.0 10.0 0.00 0.00 0.00 58 1009.8
20260506024028 64 207 3.0 14.0 0.00 0.00 0.00 58 1009.8
20260506023528 64 225 3.0 10.0 0.00 0.00 0.00 58 1009.8
20260506023028 65 231 2.0 11.0 0.00 0.00 0.00 57 1009.8
20260506022527 65 150 3.0 11.0 0.00 0.00 0.00 57 1009.8
20260506022027 65 234 2.0 13.0 0.00 0.00 0.00 57 1009.7
20260506021527 65 211 3.0 10.0 0.00 0.00 0.00 56 1009.7
20260506021027 65 187 1.0 8.0 0.00 0.00 0.00 57 1009.7
20260506020527 65 259 1.0 11.0 0.00 0.00 0.00 56 1009.7
20260506020027 65 64 4.0 14.0 0.00 0.00 0.00 55 1009.7
20260506015527 65 241 2.0 14.0 0.00 0.00 0.00 55 1009.6